Temp
9 9 8 8 8 8 8 8 9 9 9 9 9 9 9 9 9 9 9 9 9 9 9 9 9 9 9 9 9 9 9 10 10 10 9 9 9 9 9 9 9 8 8 8 8 8 8 8 8 8 8 8 8 8 8 8 9 9 9 8 8 8 8 8 8 8 8 8 9 9 9 9 9 9 9 9 9 9 9 8 8 8 9 9 9
9 8 8 8 8 8 8 8 9 9 9 9 9 9 9 9 9 9 9 9 9 9 9 9 9 9 9 9 9 9 9 9 10 10 9 9 9 9 9 9 9 8 8 8 8 8 8 8 8 8 8 8 8 8 8 8 8 9 8 8 8 8 8 8 8 8 8 8 8 8 8 9 9 9 9 8 8 8 8 8 8 8 8 8 8
9 9 9 9 9 9 8 9 9 9 9 9 9 9 9 9 9 9 9 9 9 9 9 9 9 9 9 9 9 9 9 9 9 9 9 9 9 9 9 9 9 8 8 8 8 8 8 8 8 8 8 8 8 8 8 8 8 8 8 9 8 8 8 8 8 8 8 8 8 8 8 8 8 8 8 8 8 9 9 9 9 8 8 9 9
9 9 9 9 9 9 9 9 9 9 9 9 9 9 9 9 9 9 9 9 9 9 9 9 9 9 9 9 9 9 9 9 9 9 9 9 9 9 9 9 8 8 8 8 8 8 8 8 9 8 8 8 8 8 8 8 8 8 8 9 8 8 8 8 8 8 8 8 8 8 8 8 8 8 8 8 9 9 9 9 9 9 9 9 9
9 9 9 9 9 9 9 9 9 9 9 9 9 9 9 9 9 9 9 9 9 9 9 9 8 8 8 8 8 8 9 9 9 9 9 9 9 9 9 9 9 8 8 9 8 8 8 8 8 8 8 8 8 8 8 8 8 8 8 8 9 8 8 8 8 8 8 8 8 8 8 8 8 8 8 9 9 9 9 9 9 9 9 9 9
9 9 9 9 9 9 9 9 9 9 9 9 9 9 9 9 9 9 9 8 9 9 9 8 8 8 8 9 9 8 9 9 9 9 9 9 9 9 9 9 9 9 9 9 9 8 8 8 8 8 8 8 8 8 8 8 8 8 8 8 8 9 9 8 8 8 8 8 8 8 8 8 8 9 9 9 9 9 9 9 9 9 9 9 9
9 9 9 9 9 9 9 9 9 9 9 9 9 9 9 9 9 9 9 8 9 9 8 8 8 8 8 8 8 8 8 8 8 8 8 9 9 8 9 9 9 9 9 9 8 8 8 8 8 8 8 8 8 8 8 8 8 8 8 8 8 8 9 9 8 9 9 9 8 9 9 9 9 9 9 9 9 10 10 10 10 10 9 9 9
9 9 9 9 9 9 9 9 9 9 9 9 9 9 9 9 9 9 8 8 9 9 8 9 9 9 8 8 8 8 8 8 8 8 8 8 9 9 9 9 9 9 9 9 8 8 8 8 8 8 8 8 8 8 8 8 8 8 8 8 8 8 8 8 9 9 9 9 9 9 9 9 9 9 9 10 10 10 10 10 10 10 10 9 9
9 9 9 9 9 9 9 9 9 9 9 9 9 9 9 9 9 9 8 8 8 8 9 9 9 9 8 8 8 8 8 8 8 8 8 8 9 9 9 9 8 8 8 8 8 8 8 8 8 8 8 8 8 8 8 8 8 8 8 8 8 8 8 8 9 9 9 9 9 9 9 9 9 9 10 10 10 10 10 10 10 10 10 9 9
9 9 9 9 9 9 9 9 9 9 9 9 9 9 9 9 9 8 8 8 8 8 8 8 9 9 8 8 8 8 8 8 8 7 7 8 9 9 9 9 8 8 8 8 8 8 8 8 8 8 8 8 8 8 8 8 8 8 8 8 8 8 8 9 9 9 9 9 9 9 9 9 10 9 9 9 9 9 10 10 10 10 10 10 9
9 9 9 9 9 9 9 9 9 9 9 9 9 8 8 8 8 8 8 8 8 8 8 8 8 8 8 8 8 8 8 8 8 7 7 8 9 9 9 9 9 8 8 8 8 8 8 8 8 8 8 8 8 8 8 8 8 8 8 8 8 9 9 9 9 9 9 9 9 9 9 9 10 9 9 9 9 10 10 10 10 10 10 10 10
9 9 9 9 9 9 9 9 9 9 9 9 9 8 8 8 8 8 8 8 8 8 8 8 8 8 8 8 8 8 8 8 8 7 7 8 9 9 9 9 9 9 8 8 8 8 8 8 8 8 8 8 8 8 8 8 8 8 8 8 9 9 9 9 9 9 9 9 9 9 9 10 10 10 10 10 10 10 10 10 10 10 10 10 10
9 9 9 9 9 9 9 9 9 9 9 9 8 8 8 8 8 8 8 8 8 7 7 8 8 7 7 8 8 8 8 8 7 7 7 8 9 9 9 9 9 9 9 9 9 9 9 8 8 8 8 8 8 8 8 8 8 8 8 9 9 9 9 9 9 9 9 9 9 9 10 10 10 10 10 10 10 10 10 10 10 10 10 10 10
10 10 10 9 9 9 9 9 9 9 9 9 8 8 8 8 8 8 7 8 8 7 7 7 7 7 7 7 7 7 8 7 7 7 8 9 9 9 10 10 10 9 9 9 9 9 8 8 8 8 8 8 8 8 8 8 8 8 9 9 9 9 9 9 9 9 9 9 10 10 10 10 10 10 10 10 10 10 10 10 10 10 10 10 10
10 10 10 9 9 9 9 9 9 9 9 9 8 8 8 8 9 8 7 8 8 8 7 7 7 7 7 7 7 7 7 7 7 8 9 9 9 10 10 9 9 9 9 9 8 8 8 8 8 8 8 8 8 8 8 8 9 9 9 9 9 9 9 9 9 9 10 10 10 10 10 10 10 10 10 10 10 10 10 10 10 10 10 10 10
10 10 9 9 9 9 9 9 9 9 9 8 8 8 8 8 9 8 7 7 8 8 7 7 7 7 7 7 7 7 7 8 8 9 9 9 10 10 9 9 9 9 9 9 8 8 8 8 8 8 8 8 8 8 8 9 9 9 9 9 9 9 9 9 9 10 10 10 10 10 10 10 10 10 10 10 10 10 10 10 10 10 10 10 10
10 10 9 9 9 9 9 9 9 9 9 8 8 8 8 8 8 8 7 7 8 8 7 7 7 7 8 7 7 7 8 8 8 9 9 9 9 9 9 9 9 9 9 9 9 9 8 8 8 8 8 8 8 8 9 9 9 9 9 9 9 9 9 9 10 10 10 10 10 10 10 10 10 10 10 10 10 10 10 10 10 10 10 10 10
10 10 10 10 9 9 9 9 9 9 9 9 8 8 8 8 8 8 7 7 8 8 8 8 8 8 8 7 7 8 8 8 9 9 9 9 9 9 9 9 9 9 9 9 9 9 9 9 9 8 8 8 9 9 9 9 9 9 9 9 9 9 10 10 10 10 10 10 10 10 10 10 10 10 10 10 10 10 10 11 11 11 11 11 11
10 10 10 10 9 9 9 9 9 9 9 9 8 8 8 7 8 8 8 7 7 8 8 8 8 8 8 8 8 8 8 9 9 9 9 9 9 9 9 9 9 9 9 9 9 9 9 9 9 9 9 9 9 9 9 9 9 9 9 9 10 10 10 10 10 10 10 10 10 10 10 10 10 10 10 10 10 11 11 11 11 11 11 11 11
10 10 10 9 9 10 9 9 9 9 9 9 8 8 8 7 8 8 8 7 7 7 8 8 8 8 8 8 8 8 9 9 9 9 9 9 9 9 9 9 9 9 9 9 9 9 8 9 9 9 9 9 9 9 9 9 9 9 9 10 10 10 10 10 10 10 10 10 10 10 10 10 10 10 10 10 11 11 11 11 11 11 11 11 11
10 10 10 10 10 10 9 9 9 9 9 9 9 8 8 8 8 8 8 8 8 7 8 8 8 8 8 8 8 8 9 9 9 9 9 9 9 9 9 9 9 9 9 9 9 8 8 8 9 9 9 9 9 9 9 9 9 9 10 10 10 10 10 10 10 10 10 10 10 10 10 10 10 10 11 11 11 11 11 11 11 11 11 11 11
10 10 10 10 10 10 9 9 9 9 9 9 9 8 8 8 8 8 8 8 8 8 8 8 8 8 8 8 8 8 9 9 9 9 9 9 9 9 9 9 9 9 9 8 8 8 8 8 9 9 9 9 9 9 9 9 10 10 10 10 10 10 10 10 10 10 10 10 10 10 10 10 11 11 11 11 11 11 11 12 12 12 12 12 12
10 10 10 10 10 9 9 9 9 9 9 9 9 9 8 8 8 8 8 8 8 8 8 8 8 8 8 8 8 9 9 9 9 9 9 9 8 8 8 8 8 8 8 8 8 8 8 8 9 9 9 9 9 9 9 10 10 10 10 10 10 10 10 10 10 10 10 10 10 10 10 11 11 11 11 11 12 12 12 12 12 12 12 12 12
10 10 10 9 9 9 9 9 9 9 9 9 9 9 9 8 8 8 8 8 8 9 9 8 8 8 8 8 9 9 9 9 9 8 8 8 8 8 8 8 8 8 8 8 8 8 8 9 9 9 9 9 9 9 10 10 10 10 10 10 10 10 10 10 10 10 10 10 11 11 11 11 12 11 11 12 12 12 12 12 12 12 12 12 12
10 10 9 9 9 9 9 10 9 9 9 9 9 9 9 9 9 8 8 8 8 8 8 8 8 8 9 9 9 9 8 8 8 8 8 8 8 8 8 7 7 8 8 8 8 8 8 9 9 9 9 9 9 10 10 10 10 10 10 10 10 10 10 10 10 11 11 11 11 11 11 12 12 12 12 12 12 12 12 12 12 12 12 12 12
10 10 10 10 9 9 10 10 10 9 9 9 9 9 9 9 9 9 8 8 8 8 8 8 8 8 9 9 8 8 8 8 8 8 8 8 8 7 7 7 7 8 8 8 8 8 9 9 9 9 9 9 10 10 10 10 10 10 10 10 10 10 10 11 11 11 11 11 11 11 11 12 11 12 12 12 12 12 12 12 12 12 12 12 11
10 10 10 10 10 10 10 10 9 9 9 9 9 9 9 9 9 9 9 8 8 8 8 8 8 8 8 8 8 8 8 8 8 8 8 8 7 7 7 7 7 8 8 8 9 9 9 9 9 9 10 10 10 10 9 10 10 10 10 10 10 10 10 11 11 11 11 11 11 11 11 11 11 11 12 12 12 12 12 12 12 12 12 11 11
10 10 10 10 10 10 10 9 9 9 9 9 9 9 9 9 9 9 9 9 9 8 8 8 8 8 8 8 8 8 8 8 8 8 8 8 7 7 7 7 8 8 8 9 9 9 9 9 10 10 10 10 10 9 9 10 10 10 10 10 10 10 11 11 11 11 11 11 11 11 11 11 11 11 11 11 11 12 12 12 12 12 12 11 11
10 10 10 10 10 10 10 9 9 9 9 9 9 9 9 9 9 9 9 9 9 9 9 9 8 8 8 8 8 8 8 8 8 8 8 8 8 8 8 8 8 8 8 9 9 9 9 9 10 10 10 10 10 9 9 10 10 10 10 10 10 11 11 11 11 11 11 11 11 11 11 11 11 11 11 11 11 11 11 12 12 12 11 11 11
10 10 9 10 10 10 10 9 9 9 9 9 9 9 9 9 9 9 9 9 9 9 9 9 9 9 8 8 8 8 8 8 8 8 8 8 8 8 8 8 8 8 8 9 9 9 9 9 10 10 10 10 10 9 9 10 10 10 10 10 10 11 11 11 11 11 11 11 11 11 11 11 11 11 11 11 11 11 11 11 11 11 11 11 11
10 10 10 10 10 10 10 10 9 9 9 9 9 9 9 9 9 9 9 9 9 9 9 9 9 9 8 8 8 8 8 8 8 8 8 8 8 8 8 8 8 8 8 9 9 9 9 9 9 9 9 9 9 9 10 10 10 10 10 10 10 11 11 11 11 11 11 11 11 11 11 11 11 11 11 11 11 11 11 11 11 11 11 11 11
10 10 10 10 10 10 10 10 10 10 10 9 9 9 9 9 9 9 9 9 9 9 9 9 9 9 8 8 8 8 8 8 8 8 8 8 8 8 8 8 8 8 8 9 9 9 9 9 9 9 9 9 9 9 9 10 10 10 10 10 10 10 10 11 11 11 11 11 11 11 11 11 11 11 11 11 11 11 11 11 11 11 11 11 11
10 10 10 10 10 10 10 10 10 10 9 9 9 9 9 9 9 9 9 9 9 9 9 9 9 9 8 8 8 8 8 8 8 8 8 8 8 8 8 8 8 9 8 9 9 9 9 9 9 9 9 9 9 9 9 9 10 10 10 10 10 10 10 11 11 11 11 11 11 11 11 11 11 11 11 11 11 11 11 11 11 11 11 11 11
10 10 10 10 10 10 10 10 10 10 10 9 9 9 9 9 9 9 9 9 9 9 9 9 9 8 8 8 8 8 8 8 8 8 8 8 8 8 8 8 8 9 9 9 9 9 9 9 9 9 9 9 9 9 9 9 10 10 10 10 10 10 10 10 11 11 11 11 11 11 11 11 11 11 11 11 11 11 11 11 11 11 11 11 11
10 10 10 10 10 10 10 10 10 10 10 9 9 9 9 9 9 8 8 8 8 8 8 8 8 8 8 8 8 8 8 8 8 8 8 8 8 8 9 8 9 9 9 9 9 9 9 9 9 9 9 9 9 9 9 9 9 10 10 10 10 10 10 10 11 11 11 11 11 11 11 11 11 11 11 11 11 11 11 11 11 11 11 11 11
10 10 10 10 10 10 10 10 10 10 9 9 9 9 9 9 8 8 8 8 8 8 8 8 8 8 8 8 8 8 8 8 8 8 8 8 8 8 9 9 9 9 9 9 9 9 9 9 9 9 9 9 9 9 9 9 10 10 10 10 10 10 10 10 11 11 11 11 11 11 11 11 11 11 11 11 11 11 11 11 11 11 11 10 10
10 10 10 10 10 10 9 9 9 9 9 9 9 9 9 9 9 8 8 8 9 9 9 8 8 8 8 8 8 8 8 8 8 8 8 8 8 8 9 9 9 9 9 9 9 9 9 9 9 9 9 9 9 9 9 10 10 10 10 10 10 10 10 10 11 11 11 11 11 11 11 11 11 11 11 11 11 11 11 11 11 11 11 10 10
10 10 10 10 10 9 9 9 9 9 9 9 9 9 9 9 9 9 8 8 9 9 9 8 8 8 8 8 8 8 8 8 8 8 8 8 8 8 9 9 9 9 9 9 9 9 9 9 9 10 10 9 9 9 9 10 10 10 10 10 10 10 10 10 10 11 11 11 11 11 11 11 11 11 11 11 11 11 11 11 11 10 10 10 11
10 10 9 10 9 9 9 9 9 9 9 9 9 9 9 9 9 9 9 9 9 9 9 9 9 8 8 8 8 8 9 8 8 8 8 8 8 8 9 9 9 9 9 9 9 9 9 9 9 9 9 9 9 10 10 10 10 10 10 10 10 10 11 10 10 10 10 10 10 10 10 10 11 10 10 10 10 10 10 10 10 10 10 10 11
9 10 10 10 10 9 9 9 9 9 9 9 9 9 9 9 9 9 9 9 9 9 9 9 9 9 8 8 9 9 9 8 8 8 8 8 8 8 9 9 9 9 9 9 9 9 9 9 9 9 9 9 10 10 10 10 10 10 10 10 10 10 11 11 10 10 10 10 10 10 10 10 10 11 11 10 10 10 10 10 10 10 10 10 10
10 10 10 10 10 10 10 10 9 10 10 9 9 10 10 9 9 9 9 9 9 9 9 9 9 9 9 9 9 9 9 9 8 8 8 8 8 9 9 9 9 9 9 9 9 9 9 9 9 9 9 9 10 10 10 10 10 10 10 10 10 10 10 10 10 10 10 10 10 10 10 11 11 11 11 10 10 10 10 10 10 10 10 10 10
10 10 10 10 9 10 10 10 10 10 10 9 9 9 9 9 9 9 9 9 9 9 9 9 9 9 9 9 9 9 9 9 9 9 8 8 9 9 9 9 9 9 9 9 9 9 9 9 9 9 9 9 9 10 10 10 10 10 10 10 10 10 10 10 10 10 10 10 10 10 10 11 11 10 10 10 10 10 10 10 10 10 10 10 10
10 10 10 10 10 10 10 10 10 10 10 9 9 9 9 9 9 9 9 9 9 9 9 9 9 9 9 9 9 9 9 9 9 9 9 9 9 9 9 9 9 9 9 9 9 9 9 9 9 9 9 9 9 10 10 10 10 10 10 10 10 10 10 10 10 10 10 10 10 10 10 10 10 10 10 10 10 10 10 10 10 10 10 10 10
10 10 10 10 10 10 10 10 10 10 10 9 9 9 9 10 9 9 9 9 10 10 10 10 9 9 9 9 9 9 9 9 9 9 9 9 9 9 9 9 9 9 9 9 9 9 9 9 9 9 9 9 9 9 10 10 10 10 10 10 10 10 10 10 10 10 10 10 10 10 10 10 10 10 10 10 10 10 10 10 10 10 10 10 10
10 10 10 10 10 10 10 10 10 10 10 10 10 10 10 10 10 9 9 10 10 10 10 10 9 9 9 9 9 9 9 9 9 9 9 9 9 9 9 9 9 9 9 9 9 9 9 9 9 9 9 9 9 9 10 10 10 10 10 10 10 10 10 10 10 10 10 10 10 10 10 10 10 10 10 10 10 10 10 10 10 10 10 10 10
10 10 10 9 9 10 10 10 10 10 10 10 10 10 10 10 9 9 9 9 10 10 10 9 9 9 9 9 9 9 9 9 9 9 9 9 9 9 9 9 9 9 9 9 9 9 9 9 9 9 9 9 9 9 9 10 10 10 10 10 10 10 10 10 10 10 10 10 10 10 10 10 10 10 10 10 10 10 10 10 10 10 10 10 10
10 10 9 9 9 9 9 9 10 10 10 10 9 9 10 9 9 9 9 9 9 9 9 9 9 9 9 9 9 9 9 9 9 9 9 9 9 9 9 9 9 9 9 9 9 9 9 9 9 9 9 9 9 9 9 9 10 10 10 10 10 10 10 10 10 10 10 10 10 10 10 10 10 10 10 10 10 10 10 10 10 10 10 10 10
10 10 10 10 10 10 10 10 10 9 9 9 9 9 9 9 9 9 9 9 9 9 9 9 9 9 9 9 9 9 9 9 9 9 9 9 9 9 9 9 9 9 9 9 9 9 9 9 9 9 9 9 9 9 9 9 9 9 9 9 9 9 10 10 10 10 10 10 10 10 10 10 10 10 10 10 10 10 10 10 10 10 10 10 10
10 10 10 10 10 10 10 10 10 10 10 10 10 9 9 9 9 9 9 9 9 9 9 10 10 9 9 9 9 9 9 9 9 9 9 9 9 9 9 9 9 9 9 9 9 9 9 9 9 9 9 9 9 9 9 9 9 9 9 9 9 9 9 9 9 9 10 10 10 10 10 10 10 10 10 10 10 10 10 10 10 10 10 10 10
10 10 10 10 10 10 10 10 10 10 10 10 10 10 10 10 10 9 9 9 9 9 9 10 10 9 9 9 9 9 9 9 9 9 9 9 9 9 9 9 9 9 9 9 9 9 9 9 9 9 9 9 9 9 9 9 9 9 9 9 9 9 9 9 9 9 9 10 10 10 10 10 9 9 10 10 10 10 10 10 10 10 10 10 10
10 10 10 10 10 10 10 10 10 10 10 10 10 10 10 10 10 9 9 9 9 9 9 9 9 9 9 9 9 9 9 9 9 9 9 9 9 9 9 9 9 9 9 9 9 9 9 9 9 9 9 9 9 9 9 9 9 9 9 9 9 9 9 9 9 9 9 9 9 9 10 10 9 9 9 10 10 10 10 10 10 10 10 10 10
Height
3179 3180 3180 3180 3181 3182 3182 3184 3184 3185 3185 3186 3187 3188 3188 3189 3191 3191 3192 3192 3193 3193 3193 3194 3194 3195 3195 3195 3195 3196 3196 3196 3196 3196 3196 3196 3196 3197 3198 3199 3200 3200 3201 3201 3202 3203 3204 3204 3204 3204 3205 3206 3206 3206 3207 3207 3207 3206 3206 3206 3207 3207 3207 3207 3208 3208 3208 3208 3208 3209 3209 3209 3209 3209 3209 3209 3209 3209 3209 3209 3209 3209 3210 3210 3210
3181 3181 3181 3182 3182 3183 3183 3184 3185 3186 3186 3188 3188 3188 3189 3190 3191 3192 3192 3193 3193 3193 3193 3194 3195 3195 3196 3196 3196 3197 3197 3197 3197 3197 3197 3197 3197 3198 3199 3200 3201 3201 3202 3203 3203 3204 3204 3205 3205 3206 3206 3206 3206 3207 3207 3208 3208 3208 3207 3208 3208 3208 3208 3209 3209 3209 3209 3209 3210 3210 3210 3210 3210 3210 3210 3210 3210 3210 3210 3210 3210 3210 3210 3210 3210
3182 3182 3183 3183 3184 3184 3184 3186 3187 3187 3188 3189 3189 3189 3189 3191 3192 3193 3193 3193 3194 3194 3194 3195 3195 3196 3197 3197 3197 3197 3198 3198 3198 3198 3198 3198 3198 3199 3200 3201 3201 3202 3203 3204 3204 3205 3205 3206 3206 3207 3207 3207 3207 3207 3207 3207 3208 3209 3209 3209 3209 3209 3209 3210 3210 3210 3210 3210 3210 3211 3211 3211 3211 3211 3211 3211 3211 3211 3211 3211 3211 3211 3211 3211 3211
3183 3183 3184 3185 3185 3185 3186 3187 3188 3188 3189 3190 3190 3189 3190 3192 3193 3193 3194 3194 3194 3194 3195 3195 3196 3196 3197 3198 3198 3198 3198 3199 3199 3199 3199 3199 3199 3200 3201 3202 3202 3203 3204 3205 3206 3206 3207 3207 3207 3207 3208 3208 3208 3208 3208 3207 3208 3209 3210 3211 3210 3210 3210 3210 3210 3211 3211 3211 3211 3211 3212 3212 3212 3211 3211 3211 3211 3211 3211 3211 3211 3211 3211 3211 3211
3183 3185 3185 3186 3186 3187 3187 3188 3188 3189 3190 3190 3190 3190 3191 3193 3194 3194 3194 3194 3194 3195 3195 3196 3196 3196 3198 3199 3199 3199 3199 3199 3200 3199 3199 3200 3200 3201 3202 3202 3203 3204 3205 3206 3207 3207 3208 3208 3208 3208 3209 3209 3209 3209 3209 3208 3208 3209 3210 3212 3212 3211 3211 3211 3211 3211 3212 3212 3212 3212 3212 3212 3212 3212 3212 3211 3211 3211 3211 3211 3211 3211 3211 3212 3212
3185 3185 3186 3187 3187 3188 3188 3189 3189 3190 3190 3190 3191 3191 3193 3194 3194 3195 3194 3193 3196 3197 3197 3197 3197 3197 3199 3200 3199 3199 3200 3200 3200 3200 3200 3200 3200 3201 3202 3203 3204 3205 3206 3207 3208 3208 3209 3209 3209 3209 3210 3210 3210 3210 3210 3210 3210 3210 3211 3212 3213 3213 3212 3212 3212 3212 3212 3212 3212 3212 3212 3212 3213 3212 3212 3212 3211 3211 3212 3212 3212 3212 3212 3212 3213
3186 3186 3187 3187 3188 3188 3189 3189 3190 3190 3191 3191 3191 3192 3193 3194 3195 3195 3194 3195 3198 3198 3197 3197 3197 3199 3200 3200 3200 3200 3201 3201 3201 3201 3200 3200 3201 3202 3203 3204 3205 3206 3207 3208 3209 3209 3210 3210 3210 3210 3211 3211 3211 3211 3212 3212 3212 3211 3211 3212 3213 3213 3213 3213 3213 3213 3213 3212 3212 3213 3213 3213 3213 3213 3213 3212 3212 3212 3213 3213 3213 3213 3213 3213 3213
3187 3187 3188 3188 3189 3189 3189 3190 3190 3190 3191 3192 3192 3193 3194 3195 3195 3195 3195 3197 3199 3199 3198 3198 3199 3200 3200 3200 3200 3201 3202 3201 3201 3201 3200 3201 3202 3203 3204 3205 3206 3207 3208 3209 3209 3210 3211 3211 3212 3212 3212 3212 3212 3212 3213 3213 3213 3213 3213 3213 3213 3214 3214 3214 3214 3214 3214 3214 3214 3213 3214 3214 3214 3214 3214 3213 3214 3214 3214 3214 3214 3214 3214 3214 3214
3187 3188 3188 3189 3189 3189 3190 3190 3190 3191 3191 3192 3193 3193 3194 3195 3195 3195 3195 3196 3198 3199 3198 3198 3199 3200 3199 3200 3200 3201 3203 3202 3202 3201 3200 3201 3202 3203 3205 3205 3207 3208 3209 3210 3210 3211 3212 3212 3213 3213 3213 3213 3213 3213 3213 3213 3213 3214 3214 3214 3214 3214 3215 3215 3215 3215 3215 3215 3214 3214 3214 3215 3215 3215 3215 3215 3215 3215 3216 3216 3216 3216 3216 3216 3216
3188 3188 3189 3189 3190 3190 3190 3190 3191 3191 3192 3193 3193 3194 3194 3195 3195 3195 3195 3195 3198 3199 3199 3199 3200 3200 3200 3200 3201 3201 3202 3202 3203 3201 3199 3201 3203 3204 3205 3206 3208 3209 3210 3211 3211 3212 3212 3213 3213 3213 3213 3214 3214 3214 3214 3214 3214 3215 3215 3215 3215 3215 3215 3215 3215 3215 3215 3215 3215 3215 3215 3216 3216 3216 3216 3216 3217 3217 3217 3217 3217 3217 3217 3217 3217
3188 3189 3189 3190 3190 3190 3191 3191 3191 3192 3192 3193 3193 3193 3193 3195 3196 3195 3196 3196 3197 3198 3199 3200 3200 3201 3200 3200 3201 3202 3202 3202 3203 3201 3199 3201 3204 3205 3206 3207 3208 3210 3211 3212 3213 3213 3214 3214 3214 3214 3214 3215 3215 3215 3215 3215 3215 3215 3215 3216 3216 3216 3216 3216 3216 3216 3216 3216 3216 3217 3217 3217 3218 3218 3218 3218 3218 3218 3218 3218 3218 3218 3218 3218 3219
3190 3190 3190 3190 3191 3191 3191 3191 3192 3192 3193 3193 3193 3193 3193 3196 3197 3196 3196 3197 3197 3197 3200 3201 3200 3201 3201 3201 3202 3202 3203 3202 3203 3201 3200 3202 3205 3207 3208 3208 3210 3211 3212 3213 3214 3214 3215 3215 3215 3215 3215 3216 3216 3216 3216 3216 3216 3216 3216 3216 3216 3217 3217 3217 3217 3217 3217 3217 3218 3218 3219 3219 3219 3219 3219 3220 3220 3220 3220 3220 3220 3220 3220 3220 3221
3191 3191 3191 3191 3191 3191 3192 3192 3192 3192 3193 3193 3193 3193 3193 3196 3197 3197 3197 3197 3197 3197 3199 3200 3200 3201 3202 3202 3203 3203 3204 3203 3203 3202 3201 3204 3206 3208 3209 3210 3211 3212 3213 3214 3215 3216 3217 3217 3216 3216 3216 3217 3216 3217 3217 3217 3217 3217 3217 3217 3217 3218 3218 3218 3218 3218 3218 3219 3219 3219 3220 3220 3220 3221 3221 3221 3221 3221 3221 3222 3222 3222 3222 3222 3222
3191 3191 3192 3192 3192 3192 3192 3193 3193 3193 3193 3193 3194 3194 3193 3197 3198 3197 3197 3197 3198 3197 3198 3200 3201 3202 3203 3203 3204 3204 3205 3204 3203 3203 3204 3206 3208 3209 3210 3211 3212 3213 3213 3214 3216 3217 3218 3217 3217 3217 3217 3217 3217 3217 3217 3218 3218 3218 3217 3217 3218 3218 3219 3219 3219 3220 3220 3220 3220 3221 3221 3221 3222 3222 3222 3223 3223 3223 3223 3223 3223 3223 3224 3224 3224
3191 3192 3192 3192 3192 3192 3193 3193 3193 3193 3194 3194 3194 3194 3194 3196 3199 3198 3197 3197 3198 3198 3198 3201 3202 3203 3203 3204 3203 3203 3204 3203 3204 3205 3207 3208 3210 3211 3211 3212 3212 3213 3214 3215 3216 3217 3217 3217 3217 3218 3218 3218 3218 3218 3218 3219 3219 3219 3218 3219 3219 3219 3220 3220 3221 3221 3222 3222 3222 3222 3223 3223 3223 3224 3224 3224 3224 3224 3225 3225 3225 3225 3225 3225 3225
3192 3192 3192 3192 3193 3193 3193 3193 3194 3194 3194 3194 3194 3194 3194 3197 3199 3198 3198 3198 3199 3199 3199 3200 3202 3202 3203 3203 3202 3202 3203 3204 3206 3207 3209 3210 3211 3212 3212 3213 3213 3214 3214 3215 3216 3217 3217 3217 3218 3218 3219 3219 3219 3219 3219 3220 3220 3220 3220 3220 3221 3221 3222 3222 3223 3223 3223 3224 3224 3224 3224 3225 3225 3225 3226 3226 3226 3226 3226 3226 3226 3226 3226 3226 3226
3192 3192 3192 3192 3193 3193 3193 3193 3194 3194 3194 3194 3194 3194 3194 3197 3199 3199 3199 3199 3199 3200 3200 3201 3201 3202 3203 3202 3202 3203 3205 3206 3208 3209 3211 3212 3212 3213 3213 3214 3214 3215 3215 3216 3216 3217 3218 3218 3219 3219 3220 3220 3220 3220 3221 3221 3221 3221 3221 3222 3222 3223 3223 3224 3224 3225 3225 3225 3226 3226 3226 3226 3227 3227 3227 3227 3227 3227 3227 3227 3227 3227 3227 3227 3227
3192 3193 3193 3193 3193 3193 3194 3194 3194 3194 3194 3194 3194 3194 3194 3196 3200 3200 3199 3200 3200 3202 3202 3203 3203 3204 3204 3203 3204 3205 3207 3209 3210 3211 3213 3213 3214 3214 3214 3215 3215 3216 3216 3217 3217 3218 3219 3219 3220 3220 3220 3221 3221 3222 3222 3222 3222 3222 3223 3223 3224 3225 3225 3226 3226 3226 3227 3227 3227 3228 3228 3228 3228 3228 3228 3228 3228 3229 3229 3229 3229 3229 3229 3229 3228
3192 3193 3193 3193 3193 3194 3194 3194 3194 3194 3194 3194 3195 3195 3194 3196 3200 3201 3200 3200 3201 3202 3203 3204 3204 3205 3205 3206 3207 3208 3209 3211 3212 3213 3214 3215 3215 3215 3215 3216 3216 3217 3217 3218 3219 3219 3220 3220 3221 3221 3221 3222 3223 3223 3224 3224 3224 3224 3225 3225 3226 3227 3227 3228 3228 3228 3228 3229 3229 3229 3229 3229 3229 3229 3229 3229 3230 3230 3230 3230 3230 3230 3230 3230 3230
3193 3193 3193 3193 3194 3194 3194 3195 3194 3194 3195 3195 3196 3196 3195 3197 3201 3202 3202 3202 3202 3203 3203 3204 3205 3206 3207 3208 3210 3211 3212 3213 3214 3215 3215 3215 3216 3216 3217 3217 3218 3218 3219 3219 3220 3220 3221 3221 3222 3222 3223 3223 3224 3225 3225 3225 3226 3226 3227 3227 3228 3228 3229 3229 3230 3230 3230 3230 3230 3230 3230 3230 3230 3230 3230 3231 3231 3231 3231 3232 3232 3232 3232 3231 3231
3193 3193 3194 3194 3194 3195 3195 3195 3195 3195 3196 3196 3197 3197 3197 3198 3200 3203 3204 3204 3203 3204 3204 3205 3206 3207 3209 3210 3212 3213 3214 3214 3215 3215 3216 3216 3217 3217 3218 3219 3219 3220 3220 3221 3221 3221 3222 3222 3223 3223 3224 3225 3226 3226 3227 3227 3228 3228 3229 3230 3230 3230 3231 3231 3231 3232 3231 3231 3231 3231 3232 3232 3232 3232 3232 3232 3232 3233 3233 3233 3233 3233 3233 3232 3232
3194 3194 3194 3195 3195 3195 3196 3196 3196 3197 3197 3198 3198 3199 3199 3200 3201 3203 3206 3206 3205 3205 3205 3206 3207 3209 3210 3212 3213 3214 3215 3216 3216 3216 3217 3217 3218 3219 3219 3220 3221 3221 3222 3222 3223 3223 3224 3224 3224 3225 3226 3226 3227 3228 3228 3229 3230 3231 3231 3231 3232 3232 3233 3233 3233 3233 3233 3233 3233 3233 3233 3233 3233 3233 3233 3234 3234 3234 3235 3235 3235 3234 3234 3234 3233
3195 3195 3195 3195 3196 3196 3197 3197 3198 3198 3198 3199 3200 3200 3201 3202 3202 3204 3206 3206 3207 3207 3208 3208 3209 3210 3212 3213 3214 3215 3216 3216 3217 3217 3218 3219 3220 3220 3221 3221 3222 3223 3223 3224 3224 3225 3225 3226 3226 3227 3228 3228 3229 3230 3231 3231 3232 3232 3233 3233 3234 3234 3234 3234 3234 3234 3234 3234 3234 3234 3234 3234 3234 3234 3235 3235 3236 3236 3236 3236 3236 3236 3235 3235 3234
3195 3196 3196 3196 3197 3197 3198 3198 3199 3199 3200 3201 3201 3202 3203 3203 3204 3205 3206 3207 3209 3210 3210 3211 3212 3213 3214 3215 3216 3217 3217 3217 3218 3219 3220 3221 3221 3222 3222 3223 3223 3224 3225 3225 3226 3227 3227 3228 3228 3229 3230 3231 3231 3232 3233 3233 3234 3234 3234 3235 3235 3236 3236 3236 3236 3236 3235 3235 3235 3235 3235 3236 3236 3236 3236 3237 3237 3238 3238 3238 3237 3237 3237 3236 3236
3196 3196 3197 3197 3197 3198 3199 3199 3200 3201 3201 3202 3203 3204 3204 3206 3206 3207 3208 3209 3210 3211 3212 3213 3214 3215 3216 3217 3217 3218 3218 3218 3219 3220 3221 3222 3223 3223 3224 3224 3225 3225 3226 3227 3228 3228 3229 3230 3230 3231 3232 3233 3233 3234 3234 3235 3235 3236 3236 3236 3237 3237 3237 3237 3237 3237 3237 3236 3236 3236 3237 3237 3237 3238 3238 3239 3239 3239 3239 3239 3239 3238 3238 3237 3237
3197 3197 3198 3198 3198 3199 3200 3200 3201 3202 3203 3204 3205 3206 3207 3208 3208 3209 3210 3210 3211 3212 3213 3214 3215 3216 3217 3218 3218 3219 3220 3220 3222 3223 3223 3224 3225 3225 3226 3226 3226 3227 3228 3229 3229 3230 3231 3231 3232 3233 3234 3234 3235 3235 3236 3236 3237 3237 3238 3238 3238 3238 3238 3238 3238 3238 3238 3237 3238 3238 3238 3239 3239 3239 3240 3240 3240 3240 3240 3240 3240 3240 3239 3239 3238
3198 3199 3199 3199 3200 3200 3201 3201 3202 3203 3205 3206 3206 3207 3208 3209 3210 3210 3211 3212 3213 3214 3214 3215 3216 3217 3218 3219 3219 3221 3222 3223 3224 3225 3226 3226 3227 3227 3228 3228 3228 3229 3229 3230 3231 3232 3233 3233 3234 3234 3235 3236 3236 3237 3237 3238 3238 3239 3239 3239 3239 3239 3239 3239 3239 3239 3239 3239 3239 3239 3240 3240 3240 3241 3241 3241 3242 3242 3242 3241 3241 3241 3240 3240 3239
3200 3200 3201 3201 3201 3202 3202 3203 3203 3205 3206 3207 3208 3209 3209 3210 3211 3212 3213 3214 3214 3215 3216 3217 3218 3218 3219 3220 3221 3223 3224 3225 3226 3227 3228 3228 3229 3229 3230 3230 3230 3231 3231 3232 3233 3234 3235 3235 3235 3236 3236 3237 3238 3238 3239 3239 3240 3240 3240 3240 3240 3240 3240 3240 3240 3240 3240 3240 3240 3241 3241 3241 3242 3242 3243 3243 3243 3243 3243 3243 3242 3242 3242 3241 3240
3201 3201 3202 3203 3203 3203 3204 3204 3205 3206 3207 3208 3209 3210 3211 3211 3212 3213 3214 3215 3216 3216 3217 3218 3219 3220 3221 3222 3223 3224 3226 3227 3228 3229 3229 3230 3230 3231 3231 3232 3232 3232 3233 3234 3235 3236 3236 3236 3237 3237 3238 3238 3239 3240 3240 3241 3241 3241 3241 3241 3241 3241 3241 3241 3241 3241 3241 3241 3242 3242 3243 3243 3243 3244 3244 3244 3244 3244 3244 3244 3243 3243 3243 3242 3241
3202 3202 3203 3204 3205 3205 3205 3206 3207 3208 3208 3209 3210 3211 3212 3213 3214 3215 3215 3216 3217 3218 3219 3220 3221 3222 3223 3224 3225 3226 3227 3228 3229 3230 3230 3231 3232 3232 3232 3233 3233 3234 3235 3236 3237 3237 3238 3238 3239 3239 3240 3240 3241 3241 3242 3242 3242 3242 3242 3242 3242 3243 3243 3243 3243 3243 3243 3243 3243 3244 3244 3245 3245 3245 3245 3245 3245 3245 3245 3245 3244 3244 3243 3243 3242
3203 3204 3205 3205 3206 3207 3207 3208 3209 3209 3210 3211 3212 3213 3214 3214 3215 3216 3217 3218 3219 3219 3220 3221 3223 3224 3225 3226 3227 3227 3228 3229 3230 3231 3231 3232 3232 3233 3234 3234 3235 3236 3237 3237 3238 3239 3240 3240 3240 3241 3241 3242 3242 3243 3243 3243 3243 3244 3244 3244 3244 3244 3244 3244 3244 3244 3244 3244 3245 3245 3246 3246 3246 3246 3246 3246 3246 3246 3246 3246 3245 3245 3244 3244 3243
3204 3205 3206 3207 3207 3208 3209 3209 3210 3211 3212 3212 3213 3214 3215 3216 3217 3218 3219 3220 3221 3221 3222 3223 3224 3226 3227 3227 3228 3229 3230 3230 3231 3232 3232 3233 3233 3234 3235 3236 3236 3237 3238 3239 3239 3240 3241 3241 3242 3242 3243 3243 3244 3244 3245 3245 3245 3245 3245 3245 3245 3245 3245 3245 3245 3245 3246 3246 3246 3247 3247 3247 3247 3247 3247 3247 3247 3247 3247 3247 3246 3246 3245 3244 3244
3205 3206 3207 3208 3209 3210 3210 3211 3212 3212 3213 3214 3215 3216 3217 3218 3219 3220 3221 3222 3223 3223 3224 3225 3226 3227 3228 3229 3230 3230 3231 3231 3232 3233 3233 3234 3234 3235 3236 3237 3238 3238 3239 3240 3241 3242 3242 3243 3243 3244 3244 3245 3246 3246 3246 3246 3246 3246 3247 3246 3246 3246 3246 3246 3246 3246 3247 3247 3248 3248 3248 3248 3248 3248 3248 3248 3248 3248 3248 3247 3247 3246 3246 3245 3244
3207 3207 3208 3209 3210 3211 3212 3213 3213 3214 3215 3216 3217 3218 3219 3220 3220 3221 3222 3223 3224 3225 3226 3227 3228 3229 3230 3230 3231 3231 3232 3232 3233 3233 3234 3235 3236 3236 3237 3238 3239 3239 3240 3241 3242 3243 3244 3245 3245 3245 3246 3246 3247 3247 3247 3247 3248 3248 3248 3247 3247 3247 3247 3247 3247 3247 3248 3248 3249 3249 3250 3250 3250 3249 3249 3249 3249 3249 3249 3248 3248 3247 3246 3246 3245
3207 3209 3209 3210 3211 3212 3213 3214 3215 3216 3216 3217 3218 3219 3220 3221 3222 3223 3224 3225 3225 3226 3227 3228 3229 3230 3231 3231 3232 3233 3233 3233 3234 3235 3235 3236 3237 3237 3238 3239 3240 3241 3241 3242 3243 3244 3245 3246 3246 3247 3247 3248 3248 3248 3248 3249 3249 3249 3249 3248 3248 3248 3248 3247 3248 3248 3249 3249 3250 3250 3251 3251 3251 3251 3250 3250 3250 3250 3249 3249 3248 3248 3247 3246 3245
3208 3209 3210 3211 3212 3214 3215 3215 3216 3217 3218 3219 3219 3220 3221 3222 3223 3224 3225 3226 3226 3227 3228 3229 3230 3231 3231 3232 3233 3234 3234 3235 3235 3236 3236 3237 3238 3238 3239 3240 3241 3242 3242 3243 3245 3246 3246 3247 3247 3248 3249 3249 3249 3249 3249 3250 3250 3250 3250 3249 3249 3249 3249 3248 3248 3249 3250 3250 3251 3251 3251 3251 3251 3251 3251 3251 3251 3250 3250 3249 3249 3248 3247 3246 3245
3209 3210 3211 3212 3213 3215 3216 3217 3218 3219 3219 3220 3221 3222 3223 3224 3224 3225 3226 3227 3227 3228 3229 3230 3231 3232 3232 3233 3234 3234 3235 3236 3236 3237 3237 3238 3239 3239 3240 3241 3242 3243 3243 3244 3246 3246 3247 3248 3248 3249 3250 3250 3250 3250 3251 3251 3251 3251 3251 3251 3250 3250 3250 3250 3250 3250 3250 3251 3252 3252 3252 3252 3252 3252 3252 3252 3251 3251 3250 3250 3249 3248 3247 3247 3246
3210 3211 3212 3213 3214 3215 3217 3218 3219 3220 3220 3221 3222 3223 3224 3225 3225 3226 3227 3227 3228 3229 3230 3231 3232 3232 3233 3234 3235 3235 3236 3237 3237 3238 3238 3239 3240 3240 3241 3242 3243 3244 3244 3245 3246 3247 3248 3249 3249 3250 3251 3251 3251 3252 3252 3252 3252 3252 3252 3252 3252 3251 3251 3251 3251 3251 3252 3252 3252 3253 3253 3253 3253 3252 3252 3252 3252 3251 3251 3250 3249 3249 3248 3247 3246
3210 3211 3212 3213 3215 3216 3217 3218 3219 3220 3221 3222 3223 3224 3224 3225 3226 3227 3228 3229 3230 3231 3231 3232 3233 3233 3234 3235 3236 3236 3237 3237 3238 3238 3239 3240 3240 3241 3242 3243 3244 3245 3245 3246 3247 3248 3249 3249 3250 3251 3251 3252 3252 3253 3253 3253 3254 3254 3254 3253 3253 3253 3253 3253 3253 3253 3253 3253 3253 3253 3253 3253 3253 3253 3253 3252 3252 3251 3251 3250 3250 3249 3248 3247 3247
3210 3212 3213 3214 3215 3216 3217 3219 3220 3220 3221 3223 3224 3224 3225 3226 3227 3228 3229 3230 3231 3232 3232 3233 3234 3234 3235 3236 3236 3237 3237 3237 3238 3239 3240 3241 3241 3242 3243 3244 3245 3246 3246 3247 3248 3249 3249 3250 3251 3251 3252 3253 3253 3254 3254 3254 3255 3255 3255 3255 3254 3254 3254 3254 3254 3254 3254 3254 3254 3254 3254 3254 3254 3253 3253 3252 3252 3252 3251 3251 3250 3249 3248 3248 3247
3210 3212 3213 3214 3215 3217 3218 3219 3220 3221 3222 3223 3224 3225 3226 3227 3228 3229 3230 3231 3232 3233 3234 3234 3235 3235 3236 3237 3237 3238 3238 3238 3239 3239 3240 3241 3242 3243 3244 3245 3245 3246 3247 3248 3249 3249 3250 3251 3252 3252 3253 3253 3254 3254 3255 3255 3255 3255 3256 3256 3255 3255 3255 3255 3255 3255 3255 3255 3255 3255 3255 3255 3254 3254 3253 3253 3252 3252 3251 3251 3250 3249 3249 3248 3247
3211 3212 3214 3215 3216 3217 3218 3220 3221 3222 3223 3224 3225 3226 3227 3228 3229 3230 3231 3232 3233 3234 3235 3235 3236 3236 3237 3238 3238 3239 3239 3240 3240 3240 3241 3242 3242 3243 3244 3245 3246 3247 3248 3248 3249 3250 3251 3251 3252 3253 3253 3254 3254 3255 3255 3255 3256 3256 3256 3256 3256 3256 3256 3256 3256 3256 3256 3256 3256 3256 3256 3255 3255 3255 3254 3254 3253 3252 3252 3251 3250 3249 3249 3248 3247
3211 3213 3214 3215 3216 3217 3218 3220 3221 3223 3224 3225 3226 3227 3228 3229 3229 3230 3231 3232 3233 3234 3235 3236 3236 3237 3238 3239 3239 3240 3240 3241 3241 3241 3242 3242 3243 3244 3245 3245 3246 3247 3248 3249 3250 3250 3251 3252 3252 3253 3254 3254 3255 3255 3255 3256 3256 3256 3256 3257 3257 3257 3257 3257 3257 3257 3257 3257 3257 3256 3256 3256 3255 3255 3255 3254 3254 3253 3252 3251 3250 3249 3248 3248 3247
3211 3212 3213 3215 3216 3217 3219 3220 3221 3223 3224 3225 3226 3227 3228 3229 3230 3230 3231 3232 3234 3235 3236 3236 3237 3238 3239 3239 3240 3241 3241 3242 3242 3242 3243 3243 3244 3244 3245 3246 3247 3247 3248 3249 3250 3251 3251 3252 3252 3253 3254 3254 3255 3255 3256 3256 3256 3257 3257 3257 3257 3257 3257 3257 3257 3257 3257 3257 3257 3257 3256 3256 3256 3255 3255 3254 3254 3253 3252 3251 3250 3249 3248 3247 3246
3211 3212 3213 3215 3216 3218 3219 3220 3221 3223 3224 3225 3226 3227 3228 3229 3230 3231 3232 3233 3234 3235 3236 3237 3238 3238 3239 3240 3240 3241 3242 3242 3243 3243 3244 3244 3244 3245 3246 3246 3247 3248 3248 3249 3250 3251 3251 3252 3252 3253 3254 3254 3255 3255 3256 3256 3256 3257 3257 3257 3257 3257 3257 3257 3257 3257 3257 3257 3257 3257 3256 3256 3256 3255 3255 3254 3254 3253 3252 3252 3250 3249 3248 3247 3246
3211 3212 3214 3215 3216 3217 3218 3220 3221 3222 3224 3225 3226 3228 3229 3230 3231 3232 3233 3234 3235 3236 3236 3237 3238 3238 3239 3240 3241 3242 3242 3243 3243 3244 3244 3245 3245 3246 3246 3247 3247 3248 3249 3249 3250 3251 3251 3252 3252 3253 3253 3254 3254 3255 3255 3256 3256 3256 3256 3256 3257 3257 3257 3257 3257 3257 3257 3257 3257 3256 3256 3256 3255 3255 3255 3254 3253 3253 3252 3251 3250 3249 3248 3247 3246
3211 3212 3214 3215 3216 3217 3218 3220 3221 3222 3223 3225 3226 3227 3229 3230 3231 3232 3233 3234 3235 3236 3236 3237 3238 3238 3239 3240 3241 3242 3242 3243 3243 3244 3244 3245 3246 3246 3247 3247 3248 3248 3249 3249 3250 3250 3251 3252 3252 3253 3253 3254 3254 3255 3255 3255 3256 3256 3256 3256 3256 3256 3256 3256 3257 3257 3257 3257 3256 3256 3256 3255 3255 3255 3254 3253 3253 3252 3251 3250 3249 3248 3247 3246 3245
3211 3212 3214 3215 3216 3217 3219 3220 3221 3222 3223 3225 3226 3227 3229 3230 3231 3232 3233 3234 3235 3235 3236 3237 3238 3239 3240 3240 3241 3242 3242 3243 3243 3244 3244 3245 3246 3246 3247 3247 3248 3248 3248 3249 3250 3250 3251 3251 3252 3252 3253 3254 3254 3254 3254 3255 3255 3255 3256 3256 3256 3256 3256 3256 3256 3256 3256 3256 3256 3255 3255 3255 3254 3254 3253 3252 3252 3251 3250 3249 3249 3248 3247 3246 3245
3211 3212 3214 3215 3216 3218 3219 3220 3221 3222 3223 3224 3226 3227 3228 3229 3230 3232 3233 3233 3234 3235 3236 3237 3238 3239 3240 3241 3241 3242 3242 3243 3243 3244 3244 3245 3245 3246 3246 3247 3247 3248 3248 3249 3249 3250 3251 3251 3252 3252 3253 3253 3253 3254 3254 3255 3255 3255 3255 3255 3255 3255 3255 3255 3256 3256 3255 3255 3255 3255 3254 3254 3253 3253 3252 3251 3251 3250 3249 3249 3248 3247 3246 3245 3244
3211 3212 3213 3215 3216 3217 3219 3219 3220 3222 3223 3224 3225 3226 3227 3229 3230 3231 3232 3233 3234 3235 3236 3237 3238 3239 3240 3241 3241 3242 3242 3243 3243 3244 3244 3245 3245 3246 3246 3247 3247 3248 3248 3249 3249 3250 3250 3251 3251 3251 3252 3252 3253 3253 3254 3254 3255 3255 3255 3255 3255 3255 3255 3255 3255 3255 3255 3255 3254 3254 3254 3254 3253 3252 3251 3250 3250 3249 3248 3248 3247 3246 3245 3244 3244
3210 3211 3213 3215 3216 3217 3218 3219 3220 3221 3222 3223 3225 3226 3227 3228 3230 3231 3232 3233 3234 3235 3236 3237 3238 3239 3240 3240 3241 3242 3242 3243 3244 3244 3244 3245 3245 3246 3246 3247 3247 3247 3248 3248 3249 3249 3250 3250 3251 3251 3251 3252 3252 3253 3253 3254 3254 3254 3254 3254 3254 3254 3254 3254 3254 3254 3254 3254 3254 3253 3253 3253 3252 3252 3250 3250 3249 3248 3247 3247 3246 3245 3244 3244 3243
Wind_Speed
15 11 9 8 8 7 8 9 8 7 7 6 6 8 8 7 6 6 6 6 6 6 7 7 8 8 8 9 9 9 9 9 9 8 9 10 10 11 12 13 14 14 12 12 11 12 13 13 13 12 12 12 13 14 13 14 14 12 12 12 12 12 12 12 12 12 12 12 12 12 11 11 11 11 11 11 11 10 10 10 10 10 9 8 8
13 11 9 8 8 6 8 9 9 9 9 7 7 8 8 7 6 6 6 6 6 6 6 6 6 7 7 7 8 8 8 8 8 8 9 10 10 11 12 14 15 13 12 12 11 11 12 12 13 12 12 12 12 12 12 14 14 14 13 12 12 12 12 12 12 13 12 12 12 11 11 11 11 11 11 10 10 9 8 8 9 9 8 7 7
13 12 11 10 9 9 11 11 10 11 10 8 8 9 8 6 5 6 6 6 6 6 6 5 5 6 6 6 7 8 8 8 8 8 9 9 10 11 13 14 14 13 12 12 11 11 11 11 13 13 13 12 12 11 11 13 13 15 14 12 11 12 12 12 12 13 12 12 12 11 11 11 10 10 9 8 8 7 7 7 7 7 6 5 5
14 12 10 10 10 11 12 11 11 11 10 8 8 8 7 6 5 5 5 5 5 5 5 5 5 5 6 6 7 8 8 7 7 8 9 10 11 12 13 14 13 12 12 11 11 11 11 11 13 13 12 12 12 12 12 12 12 14 14 12 11 12 13 12 12 12 12 12 12 12 11 10 9 8 7 7 6 6 6 6 6 6 5 5 6
13 12 11 11 12 12 12 11 10 10 9 8 8 7 6 5 5 5 5 6 6 6 6 5 5 6 6 6 6 6 7 7 7 8 9 10 11 12 12 12 11 11 12 11 10 10 10 11 12 12 12 12 12 13 12 12 11 12 13 13 12 12 12 12 12 12 11 11 11 11 10 8 8 8 6 7 7 8 8 8 8 8 8 8 9
13 12 12 12 11 11 10 9 8 8 7 6 6 5 5 5 5 5 6 7 6 6 5 4 5 5 5 5 6 6 6 7 8 8 10 10 11 12 11 11 10 10 10 10 9 9 10 10 11 12 12 12 12 13 12 12 11 11 12 13 13 13 11 11 11 10 10 10 10 10 9 8 7 7 8 9 10 11 12 12 12 12 13 13 13
13 12 11 10 9 8 8 7 6 6 5 4 4 4 4 5 5 6 7 6 5 5 5 5 5 5 4 4 5 6 6 7 7 9 10 11 12 12 11 11 10 10 10 9 9 9 9 9 10 11 12 12 12 12 12 11 11 11 11 12 12 12 11 10 10 9 9 9 10 9 9 9 9 10 12 14 15 16 16 17 17 18 18 18 18
13 11 10 8 7 6 6 5 5 4 3 3 4 4 5 6 7 8 7 6 6 5 5 5 5 5 5 5 6 7 6 7 8 10 11 12 12 12 12 11 11 10 10 10 9 9 9 8 9 10 11 11 11 12 11 11 11 11 10 10 11 10 9 9 9 9 9 9 10 10 11 11 13 15 17 19 19 20 20 20 20 20 20 19 19
10 9 8 7 6 5 5 4 4 4 4 5 6 6 7 7 8 8 7 7 6 5 5 5 5 6 7 7 8 8 7 8 10 11 13 13 12 12 12 11 11 11 10 10 9 10 9 8 9 10 11 11 11 11 10 11 11 10 10 9 9 8 8 8 9 9 10 11 11 12 14 16 18 19 20 21 21 21 20 20 19 19 18 18 18
8 7 6 5 5 4 4 4 4 5 5 6 6 7 8 8 8 8 7 7 6 7 7 7 6 6 8 9 9 10 9 10 12 13 14 14 13 12 12 12 12 11 10 10 10 10 9 9 9 10 10 10 10 10 10 11 11 10 9 8 8 8 7 8 10 11 13 14 15 17 18 20 21 21 21 21 20 19 19 19 18 18 18 18 18
7 6 5 4 3 3 4 4 4 5 5 6 6 7 8 6 6 7 6 7 7 8 9 9 7 7 9 9 10 11 11 11 10 12 15 14 13 13 12 13 12 11 10 10 10 10 9 9 10 10 10 9 9 9 10 10 11 10 8 8 8 8 9 10 12 14 16 18 19 20 21 21 21 21 20 20 20 20 20 20 20 20 20 19 19
6 5 3 2 2 3 3 3 4 4 4 5 5 6 6 6 6 6 6 6 8 9 10 10 9 9 9 10 11 12 11 10 9 11 15 14 13 13 12 13 12 12 11 10 9 9 9 9 9 9 9 8 8 8 9 10 9 8 8 8 9 10 11 13 16 18 19 21 21 21 21 21 21 21 21 21 21 21 21 21 21 20 19 19 18
5 4 2 2 2 3 3 3 3 3 3 4 4 5 6 5 6 6 6 7 9 9 9 10 10 10 10 11 11 12 12 12 10 11 14 14 13 13 12 12 12 12 11 10 9 9 9 10 10 9 9 8 8 8 9 8 8 8 9 11 12 13 15 17 19 20 21 22 21 21 21 22 22 22 22 21 21 21 20 20 19 18 17 16 15
6 4 2 2 2 3 3 3 3 3 4 4 5 5 6 6 6 7 7 9 9 8 9 11 11 11 11 12 13 13 14 14 13 13 13 13 13 13 13 12 12 12 12 11 10 10 9 10 10 9 10 9 9 9 8 8 8 10 13 15 16 17 19 21 21 21 21 21 22 22 22 23 22 21 21 20 19 19 18 17 17 16 15 14 14
5 4 2 2 2 2 2 3 4 4 4 5 5 5 6 5 6 7 8 9 8 8 9 11 13 12 12 13 13 14 15 15 14 14 14 13 13 13 14 13 13 12 12 12 11 10 9 10 11 10 10 9 9 9 8 9 11 14 16 18 19 21 22 22 22 22 22 22 23 23 22 22 21 20 19 18 17 17 16 16 15 15 15 14 13
3 3 2 1 2 2 2 2 3 4 4 4 4 5 5 4 5 7 8 8 8 8 8 9 11 12 11 12 13 14 15 15 15 15 14 14 14 14 14 14 14 13 13 13 12 11 11 12 11 10 10 10 9 9 10 12 14 17 19 20 22 23 22 22 22 23 23 23 23 22 21 20 19 18 17 16 16 15 15 15 15 15 14 14 13
3 2 2 2 3 4 3 2 3 4 4 4 4 5 6 5 5 7 8 9 11 10 9 9 11 12 11 13 14 15 16 16 16 16 15 14 14 15 15 14 14 13 13 13 12 12 11 11 11 10 11 11 10 11 13 15 17 20 21 22 23 23 23 23 23 23 23 22 21 20 19 18 17 16 16 15 15 15 15 15 15 14 14 14 14
3 3 3 3 4 4 3 3 3 4 5 5 5 6 7 8 8 9 9 10 12 12 11 11 13 14 14 16 16 16 17 17 17 16 16 15 15 15 15 15 14 14 13 13 12 11 11 10 10 10 11 11 11 13 15 18 20 22 22 23 23 23 23 23 23 22 22 20 19 18 17 17 16 15 15 14 14 15 15 15 15 15 15 16 17
3 3 3 4 5 4 4 3 3 5 7 7 6 6 6 8 11 11 11 11 12 13 13 13 15 16 18 18 18 18 18 18 17 17 16 16 16 16 16 15 14 14 13 12 11 11 11 11 12 12 12 12 14 16 18 21 22 23 23 22 22 23 22 22 22 21 20 18 18 16 16 15 15 15 14 14 15 15 15 15 16 17 18 19 20
3 3 3 4 4 4 4 5 5 6 8 8 8 9 7 9 12 14 14 13 13 13 13 15 16 18 20 20 20 19 19 18 18 17 17 16 16 16 16 15 14 13 12 12 11 12 13 13 13 14 14 15 17 19 21 23 23 23 22 22 22 22 22 21 20 19 18 17 16 15 15 15 15 15 15 15 15 15 16 17 18 19 20 21 21
4 3 4 4 4 5 6 6 7 8 9 10 11 11 9 10 11 14 16 15 14 14 15 17 18 20 21 21 21 20 19 18 18 18 17 16 16 15 14 14 13 12 12 12 14 15 15 15 15 15 17 18 19 21 23 24 23 22 22 22 22 22 21 19 18 17 16 16 15 15 14 14 15 15 15 15 15 16 18 19 20 21 22 22 22
4 4 4 4 5 6 7 8 9 10 10 12 13 12 11 11 11 13 17 17 17 17 17 18 19 21 22 22 21 20 19 18 18 18 17 16 15 14 13 12 11 11 12 14 16 17 16 16 15 17 19 21 22 23 23 22 21 21 21 22 21 20 19 17 16 16 15 15 15 14 14 15 15 16 16 16 17 18 20 21 22 23 22 22 21
5 5 5 4 6 8 9 10 12 12 13 13 13 13 13 13 13 13 16 17 18 19 18 19 20 21 22 22 20 19 19 18 18 18 17 15 14 13 12 12 12 13 15 17 17 17 16 16 16 19 21 22 23 23 22 21 20 21 21 21 19 18 17 16 15 14 14 14 14 14 15 16 16 16 16 17 19 21 22 22 23 23 22 22 21
6 6 6 6 7 9 11 12 14 15 14 14 14 13 14 14 14 14 15 16 18 19 19 19 20 21 21 20 19 19 18 18 18 17 17 15 14 13 13 15 15 16 17 17 17 17 16 16 18 20 21 22 22 21 20 20 20 20 20 19 18 16 15 15 14 14 14 14 15 16 16 17 17 17 18 19 21 22 22 23 22 22 21 21 20
7 7 7 8 9 11 12 14 16 16 16 15 14 14 15 14 15 14 14 16 17 17 18 18 19 19 19 19 19 18 18 17 17 17 16 15 14 14 15 17 17 17 17 18 18 18 18 18 20 22 22 22 21 20 20 19 20 19 19 17 16 15 15 14 14 14 14 15 16 17 17 18 17 18 19 20 21 22 22 22 21 21 20 19 18
8 8 9 10 11 13 13 15 16 17 17 16 15 15 15 15 14 14 14 15 16 16 16 17 17 17 18 18 17 17 17 16 16 16 15 14 14 14 16 17 17 17 17 18 18 19 19 21 23 23 23 22 21 20 20 19 19 18 17 16 15 14 14 14 14 14 15 16 17 17 17 17 18 19 20 21 21 22 21 20 20 19 19 18 17
8 9 10 11 13 14 15 16 17 16 16 16 16 15 15 15 14 13 13 14 15 16 16 16 16 17 17 17 17 16 15 15 14 14 14 13 13 13 15 16 16 16 17 17 18 19 20 22 23 23 22 21 20 20 19 18 17 17 16 15 14 14 14 14 14 14 15 16 17 17 17 18 19 20 20 21 21 20 20 19 19 18 17 17 16
9 10 11 12 14 15 16 17 17 16 15 15 15 15 14 15 14 14 14 14 15 16 16 17 16 17 17 17 16 16 15 14 14 13 13 13 12 13 14 14 14 15 16 17 18 19 21 22 22 22 21 20 19 18 18 17 16 15 15 14 13 13 14 14 14 14 16 17 17 17 17 18 19 20 20 20 20 19 19 18 17 16 16 16 16
10 11 11 12 14 16 17 17 17 16 15 15 15 14 14 14 14 14 15 15 16 17 17 17 17 17 17 17 16 16 15 15 14 13 13 12 12 12 13 13 13 14 15 16 18 19 20 21 21 20 20 19 18 17 16 15 15 14 14 13 13 13 14 14 14 15 16 17 17 16 17 18 19 20 20 19 19 18 18 17 16 15 15 15 15
11 12 12 13 14 15 17 17 17 16 15 15 15 14 14 14 15 15 16 17 18 19 19 19 18 17 17 17 16 16 15 15 14 13 12 12 12 11 12 12 12 13 14 15 17 18 19 19 19 19 18 17 16 16 15 14 13 13 13 13 13 13 14 14 15 16 16 16 16 17 18 18 19 19 18 18 17 17 16 15 14 14 13 14 14
11 12 13 13 14 15 17 17 17 16 15 14 14 15 15 15 16 16 17 17 18 18 19 18 18 17 16 16 15 15 14 14 13 13 12 12 11 11 11 12 13 14 14 15 16 17 17 18 17 17 17 16 15 14 13 13 13 12 12 12 13 13 14 14 16 16 16 15 16 17 18 18 18 18 17 16 15 15 14 14 13 12 12 13 14
11 12 12 14 15 15 17 18 17 16 14 14 14 15 16 16 17 17 17 17 16 16 17 16 16 15 15 14 14 13 13 12 12 12 12 12 11 11 11 12 14 15 15 15 15 16 16 16 16 16 15 14 13 13 12 12 12 12 11 12 12 13 14 15 16 17 16 15 16 17 18 18 17 16 15 14 14 13 13 12 11 11 11 12 13
11 12 12 14 15 16 17 18 18 17 15 14 14 15 15 16 17 16 16 15 15 15 15 15 14 13 13 13 12 12 12 12 12 11 12 12 11 11 11 12 14 16 15 14 15 15 15 15 15 14 14 13 12 11 11 11 11 11 11 11 12 13 14 15 16 16 15 15 15 16 16 16 15 15 14 13 12 11 11 10 10 11 11 12 12
11 11 12 14 15 16 17 18 18 17 16 16 16 15 15 15 16 15 15 14 14 14 14 14 13 12 11 11 11 10 11 11 11 11 12 12 11 11 12 12 14 15 16 14 14 14 14 14 14 13 12 12 11 10 10 10 10 10 11 12 12 13 15 16 16 16 15 15 15 15 14 14 13 12 12 11 10 10 9 9 9 10 10 10 11
11 11 12 13 14 16 17 17 17 17 17 17 17 17 16 15 15 15 14 13 13 13 13 13 12 11 11 10 9 9 10 10 10 11 12 12 11 11 12 13 14 15 15 15 14 13 13 13 13 12 11 10 9 8 8 9 9 10 11 12 13 13 15 16 16 15 15 15 14 14 13 12 11 10 9 9 8 8 8 8 8 8 8 9 10
12 12 12 13 14 15 16 16 16 16 16 17 17 17 17 16 15 14 14 13 13 13 13 13 12 12 11 10 9 9 9 9 10 11 12 13 12 11 12 13 14 15 15 14 14 13 12 12 11 11 10 9 8 7 7 7 7 9 11 12 13 14 14 15 15 15 14 14 13 12 11 10 9 8 7 6 6 6 6 6 6 7 7 7 9
12 12 12 12 13 14 15 15 15 15 16 16 16 17 16 16 15 14 13 13 13 14 14 14 13 12 11 11 10 10 10 10 10 11 12 12 12 12 12 13 14 15 15 15 14 13 12 11 10 9 9 8 8 7 6 6 6 7 9 10 11 13 14 15 15 14 14 13 12 11 10 9 8 6 5 4 4 3 3 4 5 6 6 6 8
11 12 12 12 12 13 13 14 14 15 15 15 15 15 15 15 14 14 13 13 13 14 14 14 13 12 12 11 11 11 11 12 11 11 11 11 11 12 12 12 14 14 15 15 14 13 12 11 9 8 8 7 8 7 7 6 5 6 7 9 10 11 13 13 13 13 13 12 11 10 9 8 7 5 4 2 2 3 3 3 4 5 6 7 9
11 12 12 13 13 13 13 13 14 14 14 13 13 13 14 14 14 13 13 13 13 14 13 13 13 12 11 11 11 12 12 13 12 11 11 10 10 11 12 12 13 14 15 15 14 13 12 10 8 7 7 7 7 7 6 5 5 5 7 7 8 10 11 12 12 11 11 10 9 8 7 6 5 4 3 1 2 3 4 3 4 5 6 8 10
12 12 12 13 13 13 12 12 13 13 13 12 11 11 11 12 12 12 12 12 13 13 13 12 12 11 10 10 11 11 12 12 12 11 11 11 11 11 11 12 13 13 13 13 13 12 11 9 7 7 8 7 6 6 5 5 5 5 6 7 7 8 10 10 10 9 8 8 7 6 5 4 4 3 1 1 2 3 4 4 4 5 6 9 10
13 12 13 13 13 13 12 11 11 11 11 10 8 9 10 10 10 11 11 11 11 11 11 11 10 10 10 10 11 11 11 11 12 12 11 11 12 12 12 12 12 12 11 11 12 11 10 8 7 8 8 7 6 5 5 4 5 6 6 6 6 6 7 8 7 6 5 5 4 3 2 2 2 1 1 2 3 3 4 4 5 6 7 8 11
13 12 13 13 13 13 12 11 10 10 10 9 8 9 10 10 10 10 10 11 11 11 11 11 10 9 10 10 10 11 10 10 11 12 11 11 11 11 11 11 11 10 10 10 11 11 10 9 8 7 7 5 4 5 4 4 5 5 5 5 5 5 5 5 4 4 3 3 3 2 2 2 1 1 2 3 3 3 4 5 6 7 8 9 12
13 12 12 13 13 12 12 11 11 10 10 10 9 10 10 11 11 10 10 10 11 11 11 11 10 9 9 9 9 10 10 9 10 10 10 10 10 10 10 10 9 9 8 9 10 11 10 10 9 7 6 4 3 4 5 4 4 5 6 6 5 5 4 4 3 3 3 3 4 3 3 3 2 2 2 3 3 3 4 5 6 8 10 12 14
14 13 12 12 12 11 11 11 10 10 10 10 10 10 11 11 11 10 10 11 11 11 11 10 10 9 8 8 8 9 9 9 9 9 9 9 9 9 9 9 9 8 8 9 10 10 11 10 9 7 6 4 4 5 5 5 4 4 5 5 5 5 4 3 4 3 3 4 4 4 4 4 3 3 3 3 4 5 5 5 7 9 12 13 15
14 13 12 11 11 11 10 10 10 9 10 10 10 10 10 10 9 9 9 10 10 10 10 9 8 8 8 8 8 8 8 8 8 8 7 7 8 8 8 8 8 8 9 9 9 9 10 9 8 7 7 6 6 6 6 5 4 3 3 4 4 4 3 3 4 4 5 6 6 6 5 5 5 5 5 5 6 7 7 8 8 10 12 13 15
14 13 12 11 11 11 11 10 10 10 10 10 10 9 9 8 8 7 7 7 8 8 8 8 8 8 8 8 8 9 8 7 7 7 6 6 6 7 7 7 7 8 8 9 9 9 8 8 7 7 8 7 6 7 6 5 4 3 3 2 2 3 3 3 3 4 5 6 7 6 6 6 6 6 5 6 7 9 10 9 9 10 11 13 14
13 13 12 12 12 12 11 11 10 10 10 10 10 10 9 8 8 7 7 7 7 8 8 9 9 9 9 9 9 9 8 8 7 7 7 7 6 7 7 7 7 7 7 8 8 8 8 8 7 8 8 7 6 7 7 6 5 5 4 3 3 3 3 2 3 3 4 5 6 5 6 6 7 7 5 6 7 8 10 10 10 11 12 13 14
13 13 13 12 13 12 12 12 11 12 11 11 11 10 9 9 8 8 8 7 8 8 9 9 8 8 8 9 9 8 8 8 7 7 7 6 6 6 6 6 6 5 6 6 6 7 7 7 7 7 8 8 7 8 8 7 6 6 6 6 5 4 4 3 3 4 4 4 5 5 5 6 7 7 7 7 8 8 9 10 11 12 13 14 14
13 13 13 13 13 13 13 13 13 13 12 12 12 11 10 10 9 9 9 8 8 9 8 8 7 7 7 8 8 8 8 7 7 7 7 6 6 6 5 5 4 4 4 5 5 6 6 6 7 7 7 8 9 8 9 9 8 7 7 7 7 6 6 5 5 6 6 5 6 6 6 6 8 9 9 9 10 10 11 12 12 13 13 14 14
14 13 13 14 14 14 14 14 14 13 13 13 13 12 11 10 10 10 10 9 9 8 8 7 7 7 6 6 7 7 7 7 7 7 7 7 6 6 6 5 5 4 4 5 5 5 5 6 7 8 8 9 9 9 9 10 10 9 9 9 8 7 7 7 7 7 8 8 7 8 7 7 8 10 11 12 12 12 13 14 14 14 14 14 15
15 15 14 14 14 14 14 14 14 14 14 14 13 13 12 11 10 10 10 9 8 8 8 7 7 7 6 6 6 6 6 7 6 6 7 7 7 7 6 6 6 6 5 6 6 6 6 7 8 8 8 9 10 10 10 10 10 10 9 10 9 9 8 8 8 8 9 10 9 9 10 9 9 11 13 14 14 14 15 16 16 16 16 16 16
Wind_Direction
179 187 198 210 212 213 196 180 168 148 135 140 135 119 113 114 122 125 128 135 136 129 124 121 118 115 110 108 105 104 103 105 106 107 105 101 103 112 121 127 130 128 122 115 107 103 101 100 98 96 93 93 93 92 96 97 96 96 94 95 93 93 94 93 93 92 95 94 94 95 95 97 96 95 95 96 95 94 95 96 98 97 98 99 102
174 175 179 180 184 177 163 168 165 152 142 145 139 121 115 119 126 127 127 135 139 136 130 124 123 119 116 113 108 107 106 107 107 107 108 105 106 115 124 130 131 125 119 114 109 105 101 100 98 95 91 87 88 91 96 98 101 99 92 93 95 96 96 94 93 92 93 92 90 90 90 92 94 95 94 94 95 94 94 95 100 101 100 101 105
155 153 154 151 152 141 139 148 149 146 142 144 135 119 118 124 130 133 135 137 142 141 140 142 138 128 126 123 118 114 109 109 109 109 111 109 109 118 127 130 130 123 119 115 114 109 102 101 97 93 91 90 90 89 89 93 99 100 97 94 93 95 94 91 93 93 92 90 89 88 86 89 92 93 93 93 91 90 92 97 103 102 98 95 103
146 145 144 143 139 134 134 136 137 137 137 140 130 123 128 134 143 151 149 147 151 151 160 161 148 143 142 137 129 118 112 115 116 114 114 114 114 122 129 130 129 125 121 118 116 110 105 101 94 92 91 90 89 86 82 81 84 91 96 96 93 90 91 90 90 92 91 90 90 89 88 91 92 89 88 86 84 84 89 95 99 95 91 89 97
140 138 134 133 130 129 131 130 132 133 136 137 130 134 142 152 162 169 173 175 170 162 171 166 159 161 151 141 131 121 117 122 123 120 119 119 118 121 127 131 130 125 123 122 119 111 105 98 92 92 90 89 88 85 81 77 74 80 87 91 92 89 90 91 89 90 92 93 93 93 93 93 88 82 76 75 78 81 86 90 92 92 93 95 96
136 133 129 129 129 129 130 131 134 135 135 135 137 148 157 177 181 190 199 191 175 167 172 172 175 163 151 154 145 140 129 130 131 124 122 121 117 117 124 132 133 128 125 123 117 107 101 96 95 92 89 87 85 82 79 78 75 75 79 84 89 88 89 91 90 91 90 89 87 87 89 87 83 79 77 79 82 84 87 90 92 93 93 94 95
136 133 130 129 129 130 129 134 139 138 140 147 160 178 191 204 205 216 218 200 179 176 186 192 195 166 162 182 160 152 143 143 137 128 124 118 116 119 126 133 134 131 127 121 114 105 100 99 99 94 89 85 82 79 76 77 77 75 76 82 86 86 87 89 90 89 86 83 80 81 82 83 81 81 85 88 89 90 92 93 94 94 93 93 92
137 134 133 134 135 139 140 147 155 160 173 185 203 218 221 221 221 225 223 215 198 189 204 200 190 179 179 177 164 159 156 156 146 138 127 118 120 123 129 133 133 131 127 122 115 109 106 107 104 97 91 86 81 78 77 77 78 80 80 83 85 86 86 86 86 87 87 83 81 82 83 85 87 89 92 94 94 94 95 95 95 94 93 92 91
137 135 136 138 145 152 158 171 183 197 208 215 225 230 229 224 223 219 215 219 208 196 210 203 183 182 180 176 172 165 167 165 155 148 130 122 126 128 134 135 133 131 127 124 117 110 109 108 102 97 91 86 82 78 79 82 83 84 85 87 87 86 82 80 82 86 88 86 86 87 89 91 94 95 96 96 96 96 96 95 95 94 92 90 89
138 138 141 148 161 173 189 206 213 220 222 224 224 224 221 215 220 216 212 218 207 196 197 201 194 179 175 177 175 166 175 176 163 149 130 126 131 135 140 137 134 132 128 125 120 113 110 106 101 99 94 87 83 81 83 86 87 87 87 87 87 85 82 81 84 88 91 93 94 95 97 97 98 98 97 97 97 97 97 96 94 92 91 89 88
142 144 152 163 183 204 217 222 220 225 221 222 218 222 217 197 211 211 211 216 202 192 184 193 192 174 172 171 171 170 177 178 165 141 126 126 131 137 141 137 134 131 127 121 119 119 115 109 105 103 98 90 85 85 86 88 88 88 87 85 84 85 86 88 90 94 97 99 100 101 101 100 100 98 98 98 98 97 96 94 93 92 91 90 89
147 151 158 184 221 231 228 215 212 217 211 219 214 223 218 182 196 204 200 198 192 191 180 183 180 170 172 167 168 170 168 161 149 128 118 122 127 133 138 136 135 130 124 122 123 124 119 112 110 110 105 98 91 89 89 89 87 85 86 87 87 89 92 94 97 100 102 103 103 103 102 101 101 100 100 99 98 96 95 94 92 91 90 89 87
152 157 167 211 232 230 221 207 201 206 202 216 210 213 216 179 177 190 185 173 180 190 174 169 170 170 169 161 160 159 155 146 136 121 114 122 127 129 131 131 132 127 124 126 126 124 122 117 115 115 112 106 95 89 89 87 82 82 88 91 92 95 98 100 103 104 104 104 104 103 103 102 101 100 99 98 97 96 94 93 90 88 86 85 83
156 160 178 217 218 216 218 206 190 191 190 201 202 206 214 184 166 171 171 167 171 181 169 162 166 169 164 156 155 151 146 138 130 121 118 126 127 127 127 128 129 127 124 121 119 123 126 119 118 119 114 108 96 89 87 83 82 88 92 94 98 101 103 104 105 105 104 105 105 105 103 102 101 100 100 99 97 94 91 88 86 84 82 80 79
156 157 169 208 199 200 208 200 189 190 187 188 190 199 211 185 155 156 162 166 162 165 166 162 159 156 154 154 149 140 132 127 125 122 123 126 125 125 125 128 129 128 126 123 126 133 130 121 121 120 114 108 100 94 89 87 91 95 96 99 102 104 105 106 106 105 106 106 106 105 104 103 102 101 99 96 91 88 86 83 81 80 79 79 79
152 147 145 176 175 171 175 183 180 186 182 179 183 189 199 175 142 143 153 160 147 146 157 152 143 139 142 143 133 125 121 123 125 124 124 124 124 124 124 126 127 128 129 131 135 136 128 121 121 118 113 109 106 102 97 97 98 98 101 103 105 106 106 107 107 107 107 107 106 105 104 103 100 97 92 89 86 84 82 81 81 82 82 82 81
134 125 118 128 146 150 150 159 160 172 171 163 163 165 174 162 136 135 144 148 140 140 148 141 133 132 135 131 123 121 123 126 126 123 123 124 125 125 124 125 123 126 127 130 132 129 124 119 118 116 114 114 111 106 103 103 103 103 104 106 107 107 108 108 109 109 108 107 106 105 102 98 94 91 88 86 84 83 83 84 85 85 85 82 80
127 126 113 119 138 142 137 147 152 156 150 142 143 149 162 148 126 127 133 134 135 136 137 134 133 134 132 128 126 126 126 128 126 123 124 124 123 123 122 121 121 122 123 125 126 123 119 115 115 117 118 117 114 110 109 109 107 107 108 108 109 109 110 111 111 110 109 107 104 101 97 93 90 88 87 85 85 86 87 88 88 86 83 81 80
126 126 116 120 133 130 118 122 128 136 133 131 135 137 142 128 118 120 122 122 127 130 129 132 134 133 131 130 129 127 127 128 126 125 124 121 121 120 120 119 119 120 120 120 120 118 116 115 118 120 120 117 116 116 114 111 110 110 111 111 112 112 113 112 111 111 109 105 101 97 93 91 89 88 86 87 88 90 91 89 86 84 83 83 82
116 117 123 126 129 119 114 115 117 130 131 127 130 129 125 118 117 120 121 119 122 127 129 132 134 131 130 131 130 128 128 129 129 126 122 120 119 118 118 118 118 118 117 117 118 119 118 118 119 119 119 118 118 118 115 113 113 113 114 115 116 115 115 113 112 110 107 103 98 94 91 90 89 88 89 92 94 93 91 88 86 86 86 85 83
112 113 123 123 122 117 117 118 120 132 131 123 124 127 126 120 118 118 118 118 119 125 126 128 131 131 130 131 131 131 132 132 129 125 123 121 118 117 117 117 117 118 119 122 124 124 122 119 118 118 118 118 120 118 115 114 114 116 117 118 118 117 116 114 112 108 104 99 95 92 90 90 91 93 96 97 96 94 92 90 90 89 87 84 81
118 119 121 120 123 121 121 122 124 131 125 118 121 124 123 118 115 112 114 115 116 120 120 121 127 131 132 133 134 134 134 131 127 124 122 119 116 116 115 113 115 118 123 126 126 124 121 119 117 117 117 119 120 117 115 115 117 119 120 119 118 118 115 112 108 103 99 96 93 92 91 93 96 100 100 100 97 95 95 94 92 89 86 82 78
126 131 128 125 130 129 127 127 128 129 124 120 123 124 121 117 115 112 112 115 115 119 122 122 126 132 134 136 137 136 132 128 125 122 120 117 115 112 109 111 115 120 124 124 123 121 119 118 117 116 116 117 117 116 117 119 121 121 120 120 118 116 111 107 103 100 97 95 94 94 96 100 103 104 102 100 99 98 97 95 92 88 84 79 74
125 134 131 128 134 135 131 129 128 128 127 126 125 123 121 118 118 116 116 120 120 124 128 127 128 132 136 138 137 132 128 125 122 121 120 117 113 108 109 115 119 122 123 121 119 118 117 117 117 116 116 116 118 119 122 123 122 120 120 118 116 112 108 105 102 100 99 97 97 98 102 106 107 106 103 103 102 101 98 94 90 87 82 77 72
124 127 124 126 133 136 133 128 127 128 129 129 126 123 122 120 122 121 121 123 123 125 127 127 129 132 135 136 133 128 125 123 122 123 121 120 115 111 115 119 121 122 121 120 120 120 121 121 121 121 121 122 123 124 124 122 120 119 118 116 113 111 108 106 104 103 101 100 100 103 108 110 108 106 105 105 104 102 98 94 90 85 80 75 70
127 122 119 126 134 135 131 127 127 129 129 129 128 127 126 124 123 123 123 123 123 124 123 124 128 130 132 130 127 125 123 122 123 124 123 122 118 115 119 120 121 121 122 123 125 125 125 125 125 125 125 126 125 124 122 120 119 118 118 116 114 112 110 108 106 104 102 102 104 108 111 111 109 108 109 108 104 101 97 93 88 83 78 73 67
130 123 121 129 134 134 129 126 128 129 128 127 127 128 126 123 121 121 122 124 125 125 125 125 126 127 127 126 124 122 120 121 122 122 123 122 120 120 122 121 122 122 124 126 127 127 128 129 129 127 126 126 124 123 121 119 118 119 118 116 114 112 111 109 106 105 104 106 110 113 113 111 111 112 110 107 103 99 95 91 85 80 75 68 62
134 128 126 131 135 135 131 128 130 131 129 126 126 127 125 122 120 121 123 124 124 125 125 124 123 123 123 123 123 122 121 120 120 122 124 125 125 126 125 124 125 124 126 127 127 129 131 132 130 129 127 126 124 122 120 119 118 118 116 114 112 111 111 109 107 107 108 111 114 115 113 113 113 113 109 106 102 97 92 87 82 77 70 63 58
137 133 131 134 137 136 133 131 131 131 129 127 128 127 125 122 120 121 122 123 123 123 122 122 122 122 123 124 124 123 122 122 124 126 127 128 127 128 129 129 129 127 127 127 128 131 133 132 130 129 128 126 124 122 119 118 117 116 114 113 112 111 111 110 109 110 112 115 115 114 113 114 113 111 108 104 100 95 91 87 81 75 67 61 55
136 136 137 138 139 138 135 133 131 131 129 129 130 129 125 121 119 121 122 122 122 122 121 122 122 123 123 123 123 124 125 127 129 129 128 127 127 130 133 134 132 130 128 128 130 133 133 131 129 128 127 125 123 121 118 116 114 113 113 113 113 113 113 112 112 113 115 116 115 113 113 114 112 109 106 103 100 98 94 89 83 75 67 59 53
133 137 141 142 142 140 137 134 132 131 130 131 132 131 126 122 121 122 123 122 122 122 121 121 121 121 121 121 124 127 130 132 131 130 129 128 129 133 135 135 134 131 129 130 133 134 133 131 129 128 127 126 122 119 117 114 111 110 111 112 113 115 115 114 114 115 115 114 113 114 115 114 112 110 108 106 104 100 94 89 82 74 65 55 48
134 136 142 143 143 142 139 136 135 133 132 132 133 133 128 126 126 125 124 123 122 121 120 119 119 120 122 125 128 131 133 133 132 131 129 129 132 135 137 137 136 134 132 132 136 136 135 132 130 130 129 126 121 118 114 111 109 107 108 111 114 115 114 114 115 116 114 112 113 115 117 116 116 115 113 109 103 97 92 86 78 68 58 49 42
138 137 141 144 143 144 142 139 138 137 135 135 135 135 132 129 129 127 126 124 123 122 121 120 122 124 125 128 131 133 134 133 133 133 132 134 137 140 142 142 140 137 134 135 137 137 135 134 134 133 129 124 120 116 112 109 106 106 108 111 114 116 115 114 115 116 115 114 116 118 120 119 120 118 114 110 104 98 92 83 72 60 50 43 37
143 140 140 143 145 146 146 143 142 140 138 139 139 138 134 131 130 128 128 126 125 125 124 124 125 126 126 127 129 130 131 133 135 136 137 140 143 145 143 143 143 140 136 137 137 137 137 137 138 134 128 122 117 115 114 112 111 112 113 114 116 119 118 116 116 117 117 118 120 121 121 121 120 118 114 110 106 99 89 76 64 53 45 39 31
145 144 142 143 147 149 148 147 145 143 142 141 142 141 137 135 134 134 133 131 130 129 128 128 127 126 125 125 127 128 131 135 136 137 140 144 147 147 141 141 144 141 137 137 138 138 140 141 141 137 131 123 118 119 120 118 118 120 119 118 121 122 120 119 119 119 120 121 123 123 122 121 120 117 113 109 102 93 82 71 59 48 40 33 25
148 148 146 147 150 152 152 150 148 146 145 144 144 144 143 143 143 143 142 139 138 137 135 133 131 129 128 128 130 132 134 135 136 137 140 145 149 148 143 142 144 141 138 138 140 143 145 145 142 139 134 127 126 131 133 128 126 127 125 124 127 127 125 123 123 123 124 124 124 124 123 122 120 116 110 103 94 85 75 64 49 37 32 28 20
153 150 150 151 155 157 156 154 153 151 148 148 148 148 149 150 150 150 149 147 145 144 142 139 137 135 132 132 134 137 137 134 135 138 141 145 150 151 148 145 144 143 140 141 144 148 150 148 143 141 136 132 137 144 147 144 137 137 133 129 131 132 129 127 126 127 127 126 126 126 127 126 122 116 107 95 79 63 53 42 29 22 18 16 14
158 155 155 156 159 161 161 161 159 156 152 152 152 153 155 156 155 154 154 152 150 148 146 143 141 138 135 135 137 139 138 135 135 137 140 144 150 153 152 148 146 145 145 146 149 152 153 149 143 138 133 134 143 150 158 157 148 149 144 133 132 135 133 130 129 129 129 128 128 128 129 128 124 118 105 80 41 16 7 7 8 7 3 1 3
165 164 162 161 161 163 167 167 165 161 158 158 157 156 156 158 156 154 154 153 151 151 148 145 142 139 138 139 138 138 139 136 134 136 140 146 153 156 156 152 149 148 149 150 153 154 152 150 144 135 132 135 141 148 160 168 159 156 152 139 135 138 137 135 132 130 130 129 129 128 129 131 131 128 115 75 17 0 351 348 350 355 355 354 356
173 171 169 167 164 164 166 168 168 166 164 162 157 151 149 150 148 145 145 149 151 152 150 148 145 143 143 141 137 138 140 138 137 141 144 148 154 158 158 155 152 152 151 153 155 155 152 151 147 140 139 137 135 137 149 164 159 150 148 141 140 144 143 141 137 135 133 132 131 132 135 145 151 149 138 38 8 0 351 346 340 343 348 350 352
178 174 172 171 167 163 161 165 168 165 162 160 150 140 139 137 137 137 139 146 150 151 152 152 150 148 147 145 141 141 143 144 143 145 147 148 152 156 158 157 157 156 154 156 158 156 153 151 147 146 145 140 130 126 130 140 143 137 135 134 138 147 147 144 143 143 145 144 142 148 163 182 190 205 318 343 353 353 347 345 339 337 340 343 346
180 174 171 172 169 163 160 162 164 159 157 157 149 142 142 139 140 141 143 148 152 156 160 159 155 153 151 147 145 145 145 147 147 146 147 149 152 156 159 160 159 158 157 161 162 159 155 149 147 150 149 141 136 137 140 139 141 139 134 132 136 141 146 146 150 163 179 190 192 196 210 228 261 310 342 350 357 354 342 339 334 330 331 335 339
182 177 174 172 170 167 164 162 161 159 158 156 152 149 151 150 149 149 152 156 161 166 167 162 157 155 153 149 146 146 145 147 148 147 148 150 153 156 160 163 162 161 163 166 165 161 156 151 151 156 155 151 155 162 164 162 157 152 147 146 144 139 142 155 173 189 204 218 223 224 235 257 274 304 332 338 344 345 343 340 333 328 328 333 338
185 181 179 176 173 172 168 165 165 162 160 159 159 159 161 161 160 159 161 164 168 171 168 163 159 155 153 152 149 149 147 148 149 148 150 151 153 156 162 168 169 168 169 169 168 165 160 157 158 164 169 169 171 171 174 180 176 163 155 157 160 153 150 172 194 213 231 238 238 238 249 267 275 287 303 311 320 325 332 337 334 330 330 333 337
187 184 181 182 180 177 173 173 172 168 166 168 170 169 170 171 168 167 167 167 167 167 164 162 159 155 155 155 155 156 154 153 151 150 152 152 155 161 163 168 173 175 175 172 172 172 170 169 173 181 179 174 178 180 182 188 185 183 176 167 174 181 181 194 207 224 241 250 253 252 254 262 272 284 295 297 301 308 316 324 326 326 327 330 332
188 187 184 186 186 182 180 181 180 175 173 175 179 180 179 179 175 174 177 174 167 165 166 166 166 165 163 162 160 160 161 158 155 153 153 154 160 165 164 167 172 176 178 175 175 181 184 186 192 197 189 181 184 189 194 202 212 235 239 207 206 213 205 208 218 228 240 251 256 257 259 264 272 277 286 290 289 293 301 309 314 314 315 320 325
185 188 187 188 189 186 184 186 184 181 180 179 184 188 188 185 180 181 186 183 177 176 177 176 177 176 171 168 166 165 165 162 160 161 159 160 160 161 163 166 168 172 177 179 179 187 194 198 200 202 199 195 195 196 203 217 231 245 253 255 257 247 230 229 231 231 242 250 249 251 258 264 265 262 269 284 286 287 292 297 300 302 306 313 321
186 188 189 189 189 187 184 184 183 183 184 184 187 193 193 190 186 185 183 184 188 187 185 185 185 183 178 175 173 169 168 166 166 168 168 166 163 161 162 163 164 169 175 180 185 192 200 205 208 210 210 209 208 204 206 220 234 240 244 250 257 259 255 255 257 249 251 258 254 257 267 275 276 272 276 289 290 288 290 292 294 299 305 311 321
191 191 192 192 191 188 183 181 182 182 184 184 187 194 197 194 190 187 184 188 198 197 190 187 185 185 185 183 179 174 174 175 173 173 174 174 172 168 166 167 171 175 180 187 194 199 207 214 219 223 222 220 221 219 217 223 234 240 241 242 248 255 257 262 277 277 270 272 275 275 279 287 293 290 287 289 290 288 288 291 296 301 306 312 323
197 196 196 197 195 191 186 183 182 182 183 185 187 191 196 195 189 185 185 188 198 201 193 188 185 184 186 189 187 180 181 188 185 180 182 184 183 180 178 181 189 190 191 198 204 209 215 220 224 227 226 227 230 232 233 235 240 244 242 237 238 247 253 260 274 282 281 283 285 285 285 288 292 291 289 291 294 294 293 295 301 306 310 315 323
201 201 200 201 199 195 192 188 186 185 185 185 186 189 192 192 188 186 187 186 188 193 190 189 186 180 180 190 195 185 186 196 195 192 193 193 192 193 194 195 201 206 205 205 210 215 219 222 227 230 230 231 234 237 240 242 245 248 247 242 241 245 251 259 266 273 279 283 286 287 287 288 287 285 285 289 294 297 298 301 306 310 314 317 321